Blacksburg, VA

1:08 PM EST on February 09, 2016 (GMT -0500)
Virginia Tech

Weather History for KBCB - October, 2012

Change the Weather History Date:

Tuesday, October 30, 2012

  Actual Average Record
Temperature  
Mean Temperature 33 °F 48 °F  
Max Temperature 36 °F 62 °F 80 °F (2004)
Min Temperature 30 °F 35 °F 15 °F (1969)
Degree Days  
Heating Degree Days 32 17  
Month to date heating degree days 381 380  
Since 1 July heating degree days 487 511  
Cooling Degree Days 0 0  
Month to date cooling degree days 2 1  
Year to date cooling degree days 716 570  
Moisture  
Dew Point 32 °F    
Average Humidity 86    
Maximum Humidity 96    
Minimum Humidity 76    
Precipitation  
Precipitation 0.06 in 0.10 in 1.20 in (1970)
Month to date precipitation 1.72 2.69  
Year to date precipitation 33.04 34.98  
Snow  
Snow 0.40 in - - ()
Month to date snowfall 0.6  
Since 1 July snowfall 0.6  
Since 1 September snowfall 0.6  
Snow Depth 0.00 in    
Sea Level Pressure  
Sea Level Pressure 29.38 in    
Wind  
Wind Speed 16 mph (WNW)    
Max Wind Speed 28 mph    
Max Gust Speed 40 mph    
Visibility 8 miles    
Events Snow    
T = Trace of Precipitation, MM = Missing Value Source: NWS Daily Summary

Daily Weather History Graph

Daily Weather History Graph

Search for Another Location

Airport or City:

Trip Planner

Search our weather history database for the weather conditions in past years. The results will help you decide how hot, cold, wet, or windy it might be!

Date:

Astronomy

Oct. 30, 2012 Rise Set
Actual Time 7:44 AM EDT 6:25 PM EDT
Civil Twilight 7:17 AM EDT 6:52 PM EDT
Nautical Twilight 6:46 AM EDT 7:23 PM EDT
Astronomical Twilight 6:16 AM EDT 7:53 PM EDT
Moon 6:56 PM EDT (10/30) 8:28 AM EDT (10/30)
Length of Visible Light 11h 34m
Length of Day
10h 40m
Full, 99% of the Moon is Illuminated
Oct 30
Full
Nov 6
Last Quarter
Nov 13
New
Nov 20
First Quarter
Nov 28
Full

Hourly Weather History & Observations

Time (EDT) Temp. Windchill Dew Point Humidity Pressure Visibility Wind Dir Wind Speed Gust Speed Precip Events Conditions
12:15 AM 35.6 °F 23.7 °F 33.8 °F 93% 29.29 in 2.0 mi West 24.2 mph 39.1 mph N/A Snow Light Snow
12:35 AM 35.6 °F 25.5 °F 33.8 °F 93% 29.28 in 2.5 mi West 17.3 mph 32.2 mph N/A Snow Light Snow
12:55 AM 35.6 °F 23.0 °F 33.8 °F 93% 29.27 in 4.0 mi WNW 27.6 mph 38.0 mph N/A Snow Light Snow
1:15 AM 35.6 °F 25.2 °F 33.8 °F 93% 29.26 in 4.0 mi WNW 18.4 mph 42.6 mph N/A Snow Light Snow
1:35 AM 35.6 °F 25.2 °F 33.8 °F 93% 29.26 in 4.0 mi WNW 18.4 mph 36.8 mph N/A Snow Light Snow
1:55 AM 35.6 °F 24.5 °F 33.8 °F 93% 29.25 in 4.0 mi WNW 20.7 mph 38.0 mph N/A Snow Light Snow
2:15 AM 35.6 °F 25.2 °F 32.0 °F 87% 29.26 in 5.0 mi West 18.4 mph 35.7 mph N/A Snow Light Snow
2:35 AM 35.6 °F 23.7 °F 32.0 °F 87% 29.26 in 5.0 mi WNW 24.2 mph 43.7 mph N/A Snow Light Snow
3:35 AM 35.6 °F 23.4 °F 32.0 °F 87% 29.25 in 3.0 mi WNW 25.3 mph 36.8 mph N/A Snow Light Snow
3:55 AM 35.6 °F 25.2 °F 32.0 °F 87% 29.26 in 2.5 mi WNW 18.4 mph 40.3 mph N/A Snow Light Snow
4:15 AM 33.8 °F 22.8 °F 33.8 °F 100% 29.25 in 2.0 mi West 18.4 mph 34.5 mph N/A Snow Light Snow
4:55 AM 35.6 °F 24.5 °F 30.2 °F 81% 29.25 in 7.0 mi WNW 20.7 mph 35.7 mph N/A Snow Light Snow
5:15 AM 35.6 °F 24.2 °F 30.2 °F 81% 29.25 in 7.0 mi West 21.9 mph 36.8 mph N/A Snow Light Snow
5:35 AM 35.6 °F 24.5 °F 30.2 °F 81% 29.25 in 2.0 mi WNW 20.7 mph 39.1 mph N/A Snow Light Snow
5:55 AM 35.6 °F 23.7 °F 32.0 °F 87% 29.26 in 2.5 mi WNW 24.2 mph 38.0 mph N/A Snow Light Snow
6:15 AM 33.8 °F 21.6 °F 32.0 °F 93% 29.27 in 2.0 mi WNW 23.0 mph 33.4 mph N/A Snow Light Snow
6:35 AM 33.8 °F 22.5 °F 32.0 °F 93% 29.27 in 1.8 mi WNW 19.6 mph 38.0 mph N/A Snow Light Snow
6:55 AM 33.8 °F 22.8 °F 32.0 °F 93% 29.28 in 2.0 mi WNW 18.4 mph 31.1 mph N/A Snow Light Snow
7:15 AM 33.8 °F 23.2 °F 32.0 °F 93% 29.29 in 2.5 mi WNW 17.3 mph 33.4 mph N/A Snow Light Snow
7:35 AM 33.8 °F 23.9 °F 32.0 °F 93% 29.29 in 2.0 mi West 15.0 mph 26.5 mph N/A Snow Light Snow
7:55 AM 33.8 °F 23.5 °F 30.2 °F 87% 29.30 in 4.0 mi WNW 16.1 mph 29.9 mph N/A Snow Light Snow
8:15 AM 35.6 °F 25.9 °F 30.2 °F 81% 29.32 in 5.0 mi WNW 16.1 mph 35.7 mph N/A Snow Light Snow
8:35 AM 35.6 °F 25.9 °F 30.2 °F 81% 29.33 in 7.0 mi West 16.1 mph 32.2 mph N/A Snow Light Snow
8:55 AM 35.6 °F 28.6 °F 30.2 °F 81% 29.33 in 7.0 mi West 9.2 mph 24.2 mph N/A Snow Light Snow
9:15 AM 35.6 °F 27.1 °F 30.2 °F 81% 29.34 in 7.0 mi WNW 12.7 mph 27.6 mph N/A Snow Light Snow
9:35 AM 35.6 °F 25.9 °F 30.2 °F 81% 29.35 in 10.0 mi WNW 16.1 mph 26.5 mph N/A Snow Light Snow
9:55 AM 35.6 °F 25.5 °F 30.2 °F 81% 29.34 in 10.0 mi WNW 17.3 mph 26.5 mph N/A Snow Light Snow
10:15 AM 35.6 °F 25.5 °F 30.2 °F 81% 29.33 in 10.0 mi West 17.3 mph 28.8 mph N/A   Overcast
10:35 AM 35.6 °F 25.9 °F 30.2 °F 81% 29.33 in 10.0 mi WNW 16.1 mph 27.6 mph N/A   Overcast
10:55 AM 37.4 °F 28.5 °F 30.2 °F 75% 29.34 in 10.0 mi West 15.0 mph 28.8 mph N/A   Overcast
11:15 AM 37.4 °F 28.9 °F 30.2 °F 75% 29.35 in 10.0 mi West 13.8 mph 29.9 mph N/A   Overcast
11:35 AM 37.4 °F 29.3 °F 30.2 °F 75% 29.35 in 10.0 mi West 12.7 mph 23.0 mph N/A   Overcast
11:55 AM 37.4 °F 27.5 °F 30.2 °F 75% 29.35 in 10.0 mi WNW 18.4 mph 33.4 mph N/A   Overcast
12:15 PM 37.4 °F 28.5 °F 30.2 °F 75% 29.36 in 10.0 mi West 15.0 mph 28.8 mph N/A   Overcast
12:35 PM 37.4 °F 28.2 °F 30.2 °F 75% 29.37 in 10.0 mi WNW 16.1 mph 28.8 mph N/A   Overcast
12:55 PM 37.4 °F 29.3 °F 30.2 °F 75% 29.37 in 10.0 mi West 12.7 mph 21.9 mph N/A   Overcast
1:15 PM 37.4 °F 28.9 °F 32.0 °F 81% 29.37 in 10.0 mi West 13.8 mph 23.0 mph N/A   Overcast
1:35 PM 37.4 °F 28.9 °F 32.0 °F 81% 29.38 in 10.0 mi West 13.8 mph 24.2 mph N/A   Overcast
1:55 PM 37.4 °F 29.3 °F 32.0 °F 81% 29.38 in 10.0 mi West 12.7 mph 20.7 mph N/A   Overcast
2:15 PM 37.4 °F 27.5 °F 32.0 °F 81% 29.38 in 10.0 mi West 18.4 mph 26.5 mph N/A   Overcast
2:35 PM 37.4 °F 29.8 °F 32.0 °F 81% 29.38 in 10.0 mi West 11.5 mph 21.9 mph N/A   Overcast
2:55 PM 37.4 °F 28.5 °F 32.0 °F 81% 29.39 in 10.0 mi WNW 15.0 mph 24.2 mph N/A   Overcast
3:15 PM 37.4 °F 28.9 °F 32.0 °F 81% 29.40 in 10.0 mi West 13.8 mph 29.9 mph N/A   Overcast
3:35 PM 37.4 °F 29.3 °F 32.0 °F 81% 29.41 in 10.0 mi West 12.7 mph 27.6 mph N/A   Overcast
3:55 PM 39.2 °F 31.2 °F 32.0 °F 75% 29.41 in 10.0 mi WNW 13.8 mph 23.0 mph N/A   Overcast
4:15 PM 39.2 °F 30.5 °F 32.0 °F 75% 29.43 in 10.0 mi West 16.1 mph 24.2 mph N/A   Overcast
4:35 PM 39.2 °F 31.2 °F 32.0 °F 75% 29.43 in 10.0 mi West 13.8 mph 23.0 mph N/A   Overcast
4:55 PM 39.2 °F 31.2 °F 33.8 °F 81% 29.44 in 10.0 mi WNW 13.8 mph 24.2 mph N/A   Overcast
5:15 PM 39.2 °F 32.0 °F 33.8 °F 81% 29.44 in 10.0 mi WNW 11.5 mph 23.0 mph N/A   Overcast
5:35 PM 39.2 °F 30.2 °F 33.8 °F 81% 29.45 in 10.0 mi WNW 17.3 mph 27.6 mph N/A   Overcast
5:55 PM 39.2 °F 31.6 °F 33.8 °F 81% 29.46 in 10.0 mi WNW 12.7 mph 26.5 mph N/A   Overcast
6:15 PM 39.2 °F 31.6 °F 33.8 °F 81% 29.47 in 10.0 mi West 12.7 mph 25.3 mph N/A   Overcast
6:35 PM 39.2 °F 32.5 °F 33.8 °F 81% 29.48 in 10.0 mi West 10.4 mph 23.0 mph N/A   Overcast
6:55 PM 39.2 °F 31.6 °F 33.8 °F 81% 29.49 in 10.0 mi West 12.7 mph 23.0 mph N/A   Overcast
7:15 PM 39.2 °F 31.6 °F 33.8 °F 81% 29.50 in 10.0 mi WNW 12.7 mph 24.2 mph N/A   Overcast
7:35 PM 39.2 °F 32.5 °F 33.8 °F 81% 29.50 in 10.0 mi West 10.4 mph 25.3 mph N/A   Overcast
7:55 PM 39.2 °F 30.8 °F 33.8 °F 81% 29.51 in 10.0 mi West 15.0 mph 32.2 mph N/A   Overcast
8:15 PM 39.2 °F 32.0 °F 33.8 °F 81% 29.51 in 10.0 mi WNW 11.5 mph 31.1 mph N/A   Mostly Cloudy
8:35 PM 39.2 °F 31.2 °F 33.8 °F 81% 29.52 in 10.0 mi WNW 13.8 mph 24.2 mph N/A   Mostly Cloudy
8:55 PM 39.2 °F 31.6 °F 33.8 °F 81% 29.53 in 10.0 mi West 12.7 mph 26.5 mph N/A   Scattered Clouds
9:15 PM 39.2 °F 32.0 °F 33.8 °F 81% 29.54 in 10.0 mi West 11.5 mph 20.7 mph N/A   Scattered Clouds
9:35 PM 39.2 °F 30.8 °F 33.8 °F 81% 29.55 in 10.0 mi WNW 15.0 mph 24.2 mph N/A   Mostly Cloudy
9:55 PM 39.2 °F 32.0 °F 33.8 °F 81% 29.56 in 10.0 mi WNW 11.5 mph 24.2 mph N/A   Overcast
10:15 PM 39.2 °F 31.6 °F 33.8 °F 81% 29.56 in 10.0 mi WNW 12.7 mph 21.9 mph N/A   Overcast
10:35 PM 39.2 °F 32.0 °F 33.8 °F 81% 29.56 in 10.0 mi WNW 11.5 mph 25.3 mph N/A   Overcast
10:55 PM 39.2 °F 33.0 °F 33.8 °F 81% 29.57 in 10.0 mi WNW 9.2 mph 20.7 mph N/A   Overcast
11:15 PM 39.2 °F 33.0 °F 33.8 °F 81% 29.56 in 10.0 mi WNW 9.2 mph - N/A   Overcast
11:35 PM 39.2 °F 31.2 °F 33.8 °F 81% 29.56 in 10.0 mi WNW 13.8 mph 20.7 mph N/A   Overcast
11:55 PM 39.2 °F 31.2 °F 33.8 °F 81% 29.56 in 10.0 mi WNW 13.8 mph 26.5 mph N/A   Overcast